Regional Weather Roundup
Issued by NWS

Home | Current Version | Previous Version | Graphics & Text | Print | Product List | Glossary On
Versions: 1 2 3 4 5 6 7 8 9 10 11 12 13 14 15 16 17 18 19 20 21 22 23 24 25 26 27 28 29 30 31 32 33 34 35 36 37 38 39 40 41 42 43 44 45 46 47 48 49 50
000
ASUS43 KOAX 231810
RWRNE

WEATHER ROUNDUP FOR NEBRASKA
NATIONAL WEATHER SERVICE OMAHA NE
1200 PM CST THU NOV 23 2017

NOTES: SATELLITE DATA IS BEING USED TO AUGMENT CLOUD COVER ABOVE
       12000 FEET.
       "FAIR" INDICATES FEW OR NO CLOUDS BELOW 12,000 FEET WITH NO
       SIGNIFICANT WEATHER AND/OR OBSTRUCTIONS TO VISIBILITY.


NEZ001>004-019>022-054>056-231900-
NEBRASKA PANHANDLE

CITY           SKY/WX    TMP DP  RH WIND       PRES   REMARKS
SCOTTSBLUFF    SUNNY     63  41  44 W10       30.04F
6HR MIN TEMP:  32; 6HR MAX TEMP:  63;

ALLIANCE       SUNNY     64  40  41 W18       30.01F
6HR MIN TEMP:  30; 6HR MAX TEMP:  64;

CHADRON        SUNNY     65  41  41 SW10      29.95F
6HR MIN TEMP:  30; 6HR MAX TEMP:  65;

GORDON         FAIR      65  38  37 W20       29.96F
6HR MIN TEMP:  37; 6HR MAX TEMP:  65;

KIMBALL        CLOUDY    65  35  33 W10       30.10F
SIDNEY         CLOUDY    65  38  36 W17       30.08F
6HR MIN TEMP:  38; 6HR MAX TEMP:  65;

$$

NEZ057>060-069>072-079>082-231900-
SOUTHWEST NEBRASKA

CITY           SKY/WX    TMP DP  RH WIND       PRES   REMARKS
NORTH PLATTE   CLOUDY    60  43  53 W9        30.02F
6HR MIN TEMP:  29; 6HR MAX TEMP:  60;

IMPERIAL       CLOUDY    64  41  42 W12       30.06F
6HR MIN TEMP:  37; 6HR MAX TEMP:  65;

LEXINGTON      SUNNY     68  42  39 SW9       30.01F
MCCOOK         SUNNY     61  43  51 W6        30.05F
6HR MIN TEMP:  37; 6HR MAX TEMP:  61;

OGALLALA       CLOUDY    62  42  48 SW10      30.04F
$$

NEZ005>010-023>029-035>040-094-231900-
NORTH CENTRAL NEBRASKA

CITY           SKY/WX    TMP DP  RH WIND       PRES   REMARKS
VALENTINE      SUNNY     69  41  36 SW17      29.92F
6HR MIN TEMP:  37; 6HR MAX TEMP:  69;

AINSWORTH      SUNNY     68  42  38 W12       29.93F
BROKEN BOW     SUNNY     65  42  43 SW8       29.98F
6HR MIN TEMP:  33; 6HR MAX TEMP:  66;

O`NEILL        CLOUDY    64  43  46 SW8       29.93F
ORD            SUNNY     68  42  38 SW10G16   29.95F
6HR MIN TEMP:  28; 6HR MAX TEMP:  68;

THEDFORD       SUNNY     70  41  34 W12       29.97F
$$

NEZ041-046>049-061>064-073>077-083>087-231900-
SOUTH CENTRAL NEBRASKA

CITY           SKY/WX    TMP DP  RH WIND       PRES   REMARKS
GRAND ISLAND   SUNNY     65  42  43 SW10      30.01F
6HR MIN TEMP:  35; 6HR MAX TEMP:  65;

AURORA         SUNNY     65  40  40 SW9       30.00F
HASTINGS       SUNNY     65  40  39 SW6       30.02F
6HR MIN TEMP:  37; 6HR MAX TEMP:  65;

HEBRON         SUNNY     66  40  37 NW3       30.02F
HOLDREGE       SUNNY     67  42  40 W6        30.02F
YORK           SUNNY     64  41  42 SW9       30.00F
$$

NEZ011>018-030>034-042>045-231900-
NORTHEAST NEBRASKA

CITY           SKY/WX    TMP DP  RH WIND       PRES   REMARKS
NORFOLK        CLOUDY    60  41  49 S8        29.95F
6HR MIN TEMP:  30; 6HR MAX TEMP:  60;

ALBION         SUNNY     67  43  41 SW10      29.96F
BLAIR          SUNNY     55  37  50 W3        29.98F
COLUMBUS       SUNNY     58  40  51 S6        29.99F
FREMONT        SUNNY     55  36  49 W3        29.99F
TEKAMAH        SUNNY     53  34  48 CALM      29.98F
6HR MIN TEMP:  24; 6HR MAX TEMP:  53;

WAYNE          SUNNY     58  35  42 SW5       29.96F
$$

NEZ050>053-065>068-078-088>093-231900-
SOUTHEAST NEBRASKA

CITY           SKY/WX    TMP DP  RH WIND       PRES   REMARKS
LINCOLN        SUNNY     60  38  43 CALM      30.01F
6HR MIN TEMP:  29; 6HR MAX TEMP:  60;

OMAHA EPPLEY   MOSUNNY   54  34  46 CALM      29.99F
6HR MIN TEMP:  28; 6HR MAX TEMP:  54;

BEATRICE       CLOUDY    62  40  45 NW3       30.01F
FALLS CITY     SUNNY     58  36  43 NW7       30.00F
6HR MIN TEMP:  31; 6HR MAX TEMP:  59;

NEBRASKA CITY  SUNNY     57  38  48 CALM      30.00F
PLATTSMOUTH    SUNNY     55  37  51 NW3       30.00F
$$

NEZ044-045-051>053-067-231900-
OMAHA AREA

CITY           SKY/WX    TMP DP  RH WIND       PRES   REMARKS
OMAHA EPPLEY   MOSUNNY   54  34  46 CALM      29.99F
6HR MIN TEMP:  28; 6HR MAX TEMP:  54;

BLAIR          SUNNY     55  37  50 W3        29.98F
FREMONT        SUNNY     55  36  49 W3        29.99F
MILLARD        SUNNY     56  37  49 CALM      29.99F
OFFUTT AFB     SUNNY     53  35  50 CALM      29.99F
PLATTSMOUTH    SUNNY     55  37  51 NW3       30.00F
WAHOO          FAIR      58  36  43 CALM      29.99F
$$



USA.gov is the U.S. government's official web portal to all federal, state and local government web resources and services.